Wind_Speed
22 25 26 28 30 32 33 34 34 33 32 31 30 29 28 28 27 27 26 25 25 25 25 25 24 24 23 22 21 20 19 17 16 15 14 12 11 10 9 8 9 10 13
23 24 26 27 29 31 33 34 36 36 36 36 35 34 33 32 31 31 30 30 29 29 28 28 28 28 27 26 25 24 22 21 20 18 17 15 14 13 12 11 10 11 12
20 22 23 25 27 29 31 33 34 35 36 37 38 38 37 37 36 35 35 34 33 33 32 32 31 31 31 30 30 28 27 25 24 22 20 19 18 16 15 14 13 12 12
17 19 20 22 23 25 27 28 30 32 33 35 36 37 38 38 39 39 38 38 37 36 36 35 35 34 34 34 34 33 31 30 28 26 24 23 22 20 19 17 16 15 15
18 20 21 22 24 25 26 28 29 30 32 33 34 36 37 38 39 40 40 40 40 40 39 39 38 37 37 37 37 37 36 34 33 31 29 27 26 24 22 20 19 19 18
20 21 23 24 25 27 28 29 31 32 33 34 35 37 38 39 40 40 41 42 42 42 42 41 41 40 40 40 40 40 39 38 37 35 33 31 30 28 25 24 22 22 21
20 22 24 25 27 28 30 31 32 33 35 36 37 38 40 41 42 42 43 43 44 44 44 44 43 43 43 42 43 43 42 42 41 39 37 35 34 33 30 28 26 25 24
21 23 25 27 28 30 32 33 35 36 37 38 39 40 41 42 43 45 45 46 46 46 46 46 46 46 45 45 44 44 44 44 44 43 41 40 38 37 35 32 30 29 27
25 27 29 31 33 35 36 38 39 40 42 43 43 44 45 45 46 47 47 48 49 49 50 49 49 48 48 47 47 46 46 46 46 45 44 43 42 40 38 36 34 32 31
31 34 36 38 40 42 44 45 46 47 48 49 49 49 50 50 50 51 51 51 51 51 51 52 52 52 51 50 50 49 48 48 47 47 47 46 45 43 41 39 37 36 34
38 40 43 45 47 50 52 53 54 56 56 57 57 57 56 56 56 55 55 55 54 54 54 53 53 54 55 54 53 52 52 50 49 49 49 48 47 46 44 42 40 39 37
44 47 50 52 55 57 59 60 62 63 64 64 65 64 64 63 62 61 61 60 59 58 57 56 56 56 56 56 56 56 55 54 53 53 52 51 50 48 46 44 43 42 40
49 52 55 58 60 63 65 66 68 69 70 70 71 71 70 69 69 68 67 66 65 64 62 61 60 59 58 58 58 58 58 58 57 56 55 54 53 51 49 46 45 44 43
53 56 60 62 65 67 70 72 74 75 76 76 76 76 75 75 74 73 72 71 70 69 68 66 65 63 62 61 60 60 60 60 60 59 59 57 56 54 52 50 47 46 45
57 61 65 68 71 72 74 76 77 78 79 79 79 79 78 78 77 76 76 76 75 74 72 71 70 68 66 65 63 62 62 62 61 61 61 60 58 57 56 53 51 49 48
63 66 70 72 74 76 78 80 80 81 81 80 80 80 80 79 79 78 78 78 78 77 77 76 75 73 72 70 68 66 65 64 63 62 61 61 60 59 59 57 55 53 51
67 71 74 76 78 80 82 83 84 84 83 82 80 78 76 75 74 74 74 75 76 77 78 79 79 78 76 75 73 71 69 67 65 64 63 62 61 60 61 60 58 57 55
71 74 77 79 82 84 85 85 85 82 79 75 72 69 67 65 64 64 65 67 69 72 75 78 81 81 80 79 77 75 73 71 69 67 65 63 62 60 60 61 61 59 58
75 78 81 82 84 85 84 82 78 73 69 64 61 59 57 55 54 54 54 56 59 63 67 73 78 81 82 82 81 80 78 75 73 71 67 65 63 62 60 60 61 61 60
78 81 83 84 84 82 78 73 68 64 60 57 55 53 52 51 50 50 49 49 50 53 58 64 71 77 81 83 84 83 81 79 76 74 72 69 67 64 62 61 60 61 62
80 82 83 83 81 77 72 67 62 59 57 55 54 54 53 52 51 50 49 48 48 48 51 55 61 69 76 82 85 85 84 82 80 78 76 74 71 69 66 64 62 61 62
81 82 81 80 76 73 69 65 61 59 58 57 56 56 55 55 54 53 51 50 49 48 48 49 52 58 66 75 82 86 86 84 84 81 80 78 75 73 71 68 65 63 63
81 81 79 77 73 69 66 63 61 59 58 56 55 55 55 54 54 54 53 51 51 50 48 47 48 50 54 63 74 82 86 87 86 84 83 81 79 77 74 71 69 67 66
80 79 77 73 70 68 66 63 61 58 55 54 52 51 50 50 51 51 51 52 51 51 49 48 47 47 48 53 62 73 82 87 87 85 84 83 81 79 76 74 72 70 68
79 77 74 71 68 66 63 60 57 55 53 51 49 48 47 46 47 47 47 48 50 50 49 48 47 46 46 47 53 63 74 83 87 87 85 84 83 80 78 76 74 72 70
78 75 72 68 65 63 60 57 55 53 51 49 47 46 45 44 43 43 44 44 46 47 48 47 46 45 45 45 47 54 64 75 84 88 88 85 84 83 81 78 76 74 73
Wind_Direction
270 268 266 265 263 261 260 259 258 258 258 258 258 258 258 258 258 258 257 257 256 255 253 252 251 250 247 245 243 241 238 237 237 238 239 240 241 243 245 244 241 237 234
278 276 275 273 271 268 266 265 263 262 261 261 260 259 258 258 258 258 258 258 257 255 254 252 251 250 248 246 245 243 240 238 238 238 239 240 240 241 242 243 242 240 236
290 287 285 283 280 277 275 272 270 269 267 266 264 263 262 260 259 258 258 258 258 256 254 253 251 249 248 247 245 244 242 240 239 239 239 240 240 240 241 243 244 242 239
306 303 300 297 294 291 287 284 280 277 274 272 270 268 266 264 263 261 260 259 257 256 255 253 251 249 248 246 245 244 243 242 240 240 239 240 242 241 241 242 244 244 241
315 312 309 306 303 300 296 293 289 286 282 279 276 273 270 268 266 264 263 261 259 257 255 254 252 251 249 247 246 244 243 242 241 241 240 240 242 243 243 242 243 244 244
318 315 312 309 305 302 298 295 292 289 286 283 281 278 275 273 270 267 265 263 261 259 257 255 253 251 250 248 246 245 244 242 242 241 240 240 242 243 242 243 244 245 245
318 314 311 307 304 301 298 295 292 290 287 284 282 279 277 275 272 270 268 266 263 261 259 257 254 252 251 249 247 245 244 243 242 241 240 240 241 243 242 242 244 244 245
314 310 307 303 301 298 295 293 291 288 286 284 282 280 277 275 273 271 269 267 265 263 260 258 256 254 252 250 248 247 245 244 243 242 241 240 241 243 243 242 243 244 245
310 307 304 301 298 296 293 291 289 286 284 283 281 279 277 275 273 271 269 267 265 263 261 259 257 255 253 251 249 247 245 244 242 242 241 241 241 243 243 243 243 244 244
307 304 302 300 298 296 294 292 290 287 285 283 281 279 277 275 273 271 269 267 265 263 261 259 257 255 254 251 249 247 246 244 242 241 240 240 240 241 242 243 243 244 244
306 305 303 301 300 298 297 295 293 291 289 286 284 281 278 276 274 272 270 267 265 263 261 259 257 255 253 251 250 248 246 244 242 240 240 240 240 240 240 240 242 243 244
309 308 306 305 303 301 300 298 295 293 291 289 286 283 281 278 275 273 270 268 266 263 261 259 257 255 253 251 249 248 245 243 241 240 239 239 239 239 239 239 240 241 243
310 308 306 305 303 301 300 298 296 293 291 289 287 284 282 279 276 274 271 269 266 264 261 259 256 254 252 251 249 247 245 243 241 240 239 238 238 238 238 237 238 239 241
309 308 306 304 303 301 299 298 296 294 291 289 287 284 282 279 276 273 270 268 265 263 261 259 256 254 252 250 248 246 245 243 242 240 239 237 237 237 237 236 236 237 238
309 308 307 305 304 302 300 298 296 294 292 289 286 284 281 279 276 273 270 267 264 262 259 258 256 253 251 249 247 245 244 243 242 241 239 237 236 236 237 236 235 236 237
310 309 308 306 305 304 302 300 298 295 292 290 287 285 282 279 276 273 270 266 263 260 258 255 253 252 250 249 247 245 243 242 241 240 240 238 236 235 236 236 235 235 236
311 310 309 308 307 306 304 301 299 297 295 293 291 289 286 283 279 276 272 269 265 261 257 254 252 250 248 247 246 244 243 241 240 240 239 239 237 235 235 235 235 235 235
313 312 311 310 309 307 305 304 302 300 299 296 293 291 288 285 282 279 275 271 268 263 259 255 251 248 246 245 244 243 242 241 240 239 238 238 237 235 234 234 234 234 234
315 315 314 312 311 309 308 306 305 302 300 297 294 291 289 286 284 281 278 274 269 264 259 255 252 248 245 243 242 241 240 240 239 238 237 237 237 235 233 233 233 233 233
319 317 316 315 313 311 310 308 306 304 301 298 295 292 289 287 284 282 280 278 274 269 263 257 251 248 245 242 240 239 238 238 238 237 237 237 236 235 233 232 232 232 232
320 319 317 315 314 313 312 310 307 304 300 297 294 291 289 286 284 282 280 279 277 274 269 263 256 249 244 241 238 237 236 236 236 235 235 235 235 234 233 232 231 231 231
321 320 319 317 317 315 314 312 309 306 302 298 295 292 289 287 284 281 279 277 275 273 272 268 263 255 248 242 238 235 233 233 233 233 233 233 233 233 232 232 231 230 230
323 322 321 320 319 318 317 315 312 309 306 302 298 295 291 288 284 281 277 275 274 272 270 269 266 261 254 246 240 235 231 230 230 231 231 232 232 232 231 231 230 229 229
325 324 324 323 322 321 319 317 315 312 309 306 303 299 295 291 286 282 278 274 271 270 268 267 266 264 259 251 244 238 233 229 228 228 229 230 230 231 231 230 229 229 228
327 326 326 325 325 324 323 322 320 318 315 312 308 305 301 297 292 286 281 275 270 268 266 264 263 263 261 255 247 241 235 230 227 226 226 228 228 229 229 229 229 228 228
329 328 329 328 328 328 327 326 325 323 320 317 314 310 306 301 296 291 286 279 273 267 264 262 261 260 259 256 251 244 238 233 228 225 224 225 227 227 227 228 228 228 228
Height
5869 5868 5867 5866 5866 5865 5865 5864 5863 5863 5862 5862 5861 5861 5861 5861 5861 5861 5861 5861 5861 5861 5861 5861 5861 5861 5862 5862 5862 5863 5863 5864 5865 5865 5866 5867 5868 5869 5870 5871 5872 5873 5875
5865 5864 5863 5862 5862 5861 5860 5859 5858 5858 5857 5857 5856 5856 5855 5855 5855 5855 5855 5855 5855 5855 5856 5856 5856 5857 5857 5858 5858 5859 5860 5861 5862 5863 5863 5864 5865 5866 5867 5869 5870 5871 5873
5862 5861 5860 5859 5858 5857 5855 5854 5853 5852 5852 5851 5850 5850 5849 5849 5849 5848 5848 5849 5849 5849 5850 5851 5851 5852 5852 5853 5854 5855 5856 5857 5858 5859 5860 5861 5862 5863 5864 5866 5867 5869 5870
5860 5858 5857 5855 5854 5853 5851 5850 5848 5847 5846 5845 5844 5843 5843 5842 5842 5842 5841 5841 5842 5842 5843 5844 5845 5845 5846 5847 5848 5849 5851 5852 5853 5855 5856 5857 5858 5859 5861 5862 5864 5866 5867
5857 5855 5854 5852 5850 5848 5846 5845 5843 5841 5840 5838 5837 5836 5836 5835 5834 5834 5834 5834 5834 5835 5835 5836 5837 5838 5839 5840 5842 5843 5844 5846 5848 5849 5851 5852 5853 5855 5856 5858 5860 5862 5864
5854 5852 5850 5848 5846 5844 5841 5839 5837 5835 5833 5831 5830 5829 5828 5827 5826 5826 5826 5826 5826 5826 5827 5828 5829 5830 5831 5833 5834 5836 5837 5839 5841 5843 5845 5847 5848 5849 5852 5853 5855 5857 5859
5851 5849 5846 5844 5841 5839 5836 5834 5831 5829 5826 5824 5822 5821 5819 5818 5817 5817 5816 5816 5817 5817 5818 5819 5820 5821 5822 5824 5826 5827 5829 5831 5833 5835 5838 5840 5842 5843 5846 5848 5850 5852 5854
5848 5845 5842 5840 5837 5833 5830 5827 5824 5821 5819 5816 5814 5812 5810 5808 5807 5806 5806 5806 5806 5807 5808 5809 5810 5811 5813 5814 5816 5818 5820 5822 5825 5827 5830 5832 5835 5836 5839 5842 5844 5846 5849
5844 5841 5838 5834 5831 5827 5824 5820 5816 5813 5810 5807 5805 5802 5800 5798 5797 5796 5795 5794 5795 5795 5796 5798 5799 5801 5802 5804 5806 5808 5810 5812 5815 5818 5821 5824 5827 5829 5831 5834 5837 5840 5842
5840 5836 5832 5828 5824 5820 5816 5812 5808 5804 5801 5798 5795 5792 5789 5787 5785 5784 5783 5782 5782 5783 5784 5785 5787 5789 5791 5793 5795 5797 5799 5802 5805 5808 5811 5814 5818 5820 5823 5826 5829 5832 5835
5834 5829 5825 5820 5816 5811 5806 5802 5798 5794 5790 5786 5783 5780 5777 5775 5773 5772 5770 5769 5769 5769 5770 5772 5773 5775 5777 5780 5783 5785 5788 5791 5794 5797 5801 5805 5808 5811 5814 5817 5821 5824 5828
5827 5822 5816 5811 5806 5800 5795 5790 5785 5780 5776 5772 5768 5765 5763 5760 5758 5757 5756 5755 5755 5755 5756 5757 5759 5761 5763 5766 5769 5772 5775 5779 5782 5786 5790 5794 5797 5801 5804 5808 5812 5815 5819
5819 5813 5807 5801 5795 5789 5782 5776 5770 5765 5760 5755 5751 5747 5745 5743 5741 5740 5739 5738 5738 5739 5740 5742 5743 5745 5748 5751 5754 5758 5761 5765 5770 5774 5778 5783 5786 5790 5794 5798 5803 5806 5810
5810 5804 5797 5790 5783 5775 5768 5761 5754 5747 5741 5735 5731 5727 5724 5722 5720 5719 5718 5718 5719 5720 5722 5724 5726 5728 5732 5735 5739 5743 5747 5751 5756 5761 5765 5771 5775 5779 5783 5788 5792 5796 5800
5800 5793 5784 5776 5768 5759 5751 5742 5734 5726 5720 5713 5708 5703 5700 5698 5696 5696 5695 5695 5696 5699 5702 5705 5707 5710 5715 5718 5722 5727 5731 5736 5741 5746 5751 5757 5762 5767 5771 5776 5782 5786 5791
5788 5779 5770 5760 5750 5740 5731 5722 5713 5704 5696 5689 5683 5678 5674 5672 5670 5669 5669 5669 5671 5675 5678 5682 5685 5690 5695 5699 5704 5710 5715 5720 5726 5731 5737 5742 5748 5754 5759 5765 5770 5776 5781
5775 5765 5754 5744 5732 5721 5710 5699 5689 5679 5670 5663 5656 5651 5647 5645 5643 5642 5642 5642 5645 5648 5652 5656 5661 5667 5673 5679 5685 5691 5698 5704 5710 5716 5722 5727 5734 5740 5746 5751 5758 5764 5769
5761 5749 5737 5725 5713 5701 5688 5676 5665 5654 5645 5638 5632 5627 5623 5620 5618 5617 5616 5616 5618 5620 5624 5629 5635 5642 5649 5656 5663 5671 5678 5686 5693 5700 5706 5712 5719 5726 5732 5737 5744 5751 5757
5746 5733 5720 5706 5693 5680 5667 5654 5643 5633 5624 5618 5612 5606 5603 5600 5597 5596 5594 5594 5594 5595 5597 5602 5608 5615 5624 5631 5640 5648 5657 5666 5675 5683 5690 5697 5704 5711 5717 5723 5730 5737 5744
5730 5716 5702 5687 5673 5660 5647 5636 5625 5615 5607 5601 5595 5590 5586 5583 5580 5578 5576 5575 5573 5573 5574 5576 5581 5588 5596 5605 5615 5625 5636 5646 5655 5664 5672 5680 5688 5695 5702 5709 5715 5723 5731
5715 5700 5685 5670 5656 5642 5631 5620 5610 5601 5593 5586 5580 5574 5570 5566 5564 5562 5560 5558 5557 5555 5555 5555 5558 5563 5569 5577 5589 5601 5613 5623 5633 5642 5652 5661 5670 5678 5686 5694 5701 5709 5717
5699 5683 5668 5653 5639 5625 5614 5603 5593 5585 5577 5570 5564 5558 5553 5549 5546 5544 5543 5542 5540 5539 5538 5538 5538 5541 5546 5552 5562 5575 5589 5601 5608 5621 5631 5640 5650 5659 5668 5677 5686 5694 5702
5683 5668 5652 5636 5623 5610 5598 5588 5579 5570 5561 5553 5547 5540 5535 5531 5527 5526 5525 5524 5523 5522 5522 5522 5522 5523 5526 5531 5536 5547 5561 5573 5586 5600 5610 5620 5629 5639 5649 5660 5669 5679 5687
5668 5652 5636 5621 5608 5595 5583 5573 5563 5554 5545 5537 5530 5524 5518 5513 5509 5507 5506 5505 5505 5505 5505 5506 5506 5507 5509 5512 5516 5523 5534 5548 5562 5577 5588 5598 5609 5621 5632 5643 5653 5663 5672
5653 5637 5622 5608 5594 5581 5569 5558 5548 5538 5530 5522 5515 5509 5503 5498 5493 5490 5488 5487 5486 5487 5488 5489 5490 5491 5493 5495 5499 5504 5512 5523 5537 5552 5566 5576 5588 5601 5613 5624 5636 5646 5656
5640 5624 5610 5596 5582 5570 5557 5546 5536 5527 5518 5510 5503 5496 5490 5484 5479 5475 5472 5470 5469 5469 5471 5472 5474 5476 5477 5479 5482 5487 5493 5502 5513 5527 5542 5556 5568 5581 5594 5606 5618 5630 5640